Volkel, Netherlands

9:07 AM CEST on September 20, 2017 (GMT +0200)
Volkel Air Base

Weather History for EHVK - December, 2013

Change the Weather History Date:

Monday, December 9, 2013

  Actual Average Record
Temperature  
Mean Temperature 44 °F -  
Max Temperature 50 °F 41 °F 54 °F (2016)
Min Temperature 39 °F 32 °F 17 °F (2002)
Degree Days  
Heating Degree Days 20    
Moisture  
Dew Point 43 °F    
Average Humidity 90    
Maximum Humidity 100    
Minimum Humidity 82    
Precipitation  
Precipitation 0.00 in - - ()
Sea Level Pressure  
Sea Level Pressure 30.37 in    
Wind  
Wind Speed 12 mph ()    
Max Wind Speed 20 mph    
Max Gust Speed -    
Visibility 5.6 miles    
Events      
Averages and records for this station are not official NWS values.
T = Trace of Precipitation, MM = Missing Value Source: Averaged Metar Reports

Daily Weather History Graph

Daily Weather History Graph

Search for Another Location

Airport or City:

Trip Planner

Search our weather history database for the weather conditions in past years. The results will help you decide how hot, cold, wet, or windy it might be!

Date:

Astronomy

Dec. 09, 2013 Rise Set
Actual Time 8:31 AM CET 4:27 PM CET
Civil Twilight 7:51 AM CET 5:07 PM CET
Nautical Twilight 7:08 AM CET 5:50 PM CET
Astronomical Twilight 6:27 AM CET 6:31 PM CET
Moon 12:35 PM CET (12/9) No Moon Set
Length of Visible Light 9h 16m
Length of Day
7h 56m
Waxing Crescent, 48% of the Moon is Illuminated
Dec 9
Waxing Crescent
Dec 9
First Quarter
Dec 17
Full
Dec 25
Last Quarter
Jan 1
New

Hourly Weather History & Observations

Time (CET) Temp. Windchill Dew Point Humidity Pressure Visibility Wind Dir Wind Speed Gust Speed Precip Events Conditions
12:16 AM 46.4 °F 39.5 °F 44.6 °F 93% 30.24 in 6.2 mi WSW 17.3 mph - N/A   Mostly Cloudy
12:17 AM 48.2 °F - 44.6 °F 87% 30.24 in 6.2 mi WSW 16.1 mph - N/A   Overcast
12:25 AM 48.2 °F - 44.6 °F 87% 30.24 in 6.2 mi WSW 16.1 mph - N/A   Overcast
12:55 AM 48.2 °F - 44.6 °F 87% 30.24 in 6.2 mi WSW 18.4 mph - N/A   Mostly Cloudy
1:25 AM 48.2 °F - 44.6 °F 87% 30.24 in 6.2 mi WSW 19.6 mph - N/A   Overcast
1:55 AM 48.2 °F - 42.8 °F 82% 30.24 in 6.2 mi WSW 19.6 mph - N/A   Overcast
2:25 AM 48.2 °F - 42.8 °F 82% 30.24 in 6.2 mi WSW 19.6 mph - N/A   Overcast
2:55 AM 46.4 °F 39.2 °F 42.8 °F 87% 30.24 in 6.2 mi WSW 18.4 mph - N/A   Mostly Cloudy
3:25 AM 46.4 °F 39.0 °F 42.8 °F 87% 30.24 in 6.2 mi SW 19.6 mph - N/A   Overcast
3:55 AM 46.4 °F 39.8 °F 42.8 °F 87% 30.24 in 6.2 mi WSW 16.1 mph - N/A   Overcast
4:25 AM 44.6 °F 37.2 °F 42.8 °F 93% 30.24 in 6.2 mi WSW 17.3 mph - N/A   Overcast
4:55 AM 44.6 °F 38.1 °F 42.8 °F 93% 30.24 in 6.2 mi WSW 13.8 mph - N/A   Overcast
5:25 AM 46.4 °F 40.4 °F 42.8 °F 87% 30.27 in 6.2 mi WSW 13.8 mph - N/A   Overcast
5:55 AM 46.4 °F 40.4 °F 42.8 °F 87% 30.27 in 6.2 mi WSW 13.8 mph - N/A   Overcast
6:25 AM 46.4 °F 41.1 °F 42.8 °F 87% 30.27 in 6.2 mi WSW 11.5 mph - N/A   Overcast
6:55 AM 46.4 °F 40.7 °F 42.8 °F 87% 30.27 in 6.2 mi WSW 12.7 mph - N/A   Overcast
7:25 AM 46.4 °F 40.7 °F 42.8 °F 87% 30.27 in 6.2 mi WSW 12.7 mph - N/A   Overcast
7:55 AM 46.4 °F 40.7 °F 42.8 °F 87% 30.30 in 6.2 mi WSW 12.7 mph - N/A   Overcast
8:25 AM 46.4 °F 41.5 °F 42.8 °F 87% 30.30 in 6.2 mi WSW 10.4 mph - N/A   Overcast
8:55 AM 46.4 °F 41.5 °F 42.8 °F 87% 30.30 in 6.2 mi WSW 10.4 mph - N/A   Overcast
9:25 AM 46.4 °F 41.1 °F 44.6 °F 93% 30.33 in 6.2 mi WSW 11.5 mph - N/A   Overcast
9:55 AM 48.2 °F - 44.6 °F 87% 30.33 in 6.2 mi WSW 10.4 mph - N/A   Overcast
10:25 AM 46.4 °F 41.5 °F 42.8 °F 87% 30.33 in 6.2 mi SW 10.4 mph - N/A   Overcast
10:55 AM 46.4 °F 41.1 °F 44.6 °F 93% 30.36 in 6.2 mi WSW 11.5 mph - N/A   Overcast
11:25 AM 48.2 °F - 44.6 °F 87% 30.36 in 6.2 mi WSW 12.7 mph - N/A   Overcast
11:55 AM 48.2 °F - 44.6 °F 87% 30.36 in 6.2 mi WSW 9.2 mph - N/A   Overcast
12:19 PM 48.2 °F - 44.6 °F 87% 30.36 in 6.2 mi WSW 13.8 mph - N/A   Overcast
12:25 PM 48.2 °F - 44.6 °F 87% 30.36 in 6.2 mi WSW 13.8 mph - N/A   Overcast
12:55 PM 48.2 °F - 44.6 °F 87% 30.36 in 6.2 mi WSW 12.7 mph - N/A   Overcast
1:25 PM 50.0 °F - 44.6 °F 82% 30.36 in 6.2 mi West 10.4 mph - N/A   Overcast
1:55 PM 50.0 °F - 44.6 °F 82% 30.36 in 6.2 mi WSW 9.2 mph - N/A   Overcast
2:25 PM 50.0 °F - 44.6 °F 82% 30.39 in 6.2 mi WSW 6.9 mph - N/A   Overcast
2:55 PM 50.0 °F - 44.6 °F 82% 30.39 in 6.2 mi WSW 9.2 mph - N/A   Overcast
3:25 PM 50.0 °F - 44.6 °F 82% 30.39 in 6.2 mi WSW 9.2 mph - N/A   Overcast
3:39 PM 50.0 °F - 44.6 °F 82% 30.39 in 6.2 mi West 8.1 mph - N/A   Overcast
3:55 PM 50.0 °F - 44.6 °F 82% 30.39 in 6.2 mi WSW 6.9 mph - N/A   Overcast
4:25 PM 48.2 °F - 46.4 °F 93% 30.39 in 6.2 mi WSW 6.9 mph - N/A   Overcast
4:55 PM 48.2 °F - 44.6 °F 87% 30.42 in 6.2 mi WSW 6.9 mph - N/A   Overcast
5:17 PM 48.2 °F - 44.6 °F 87% 30.42 in 6.2 mi WSW 8.1 mph - N/A   Overcast
5:21 PM 48.2 °F - 44.6 °F 87% 30.42 in 6.2 mi WSW 8.1 mph - N/A   Overcast
5:25 PM 48.2 °F - 44.6 °F 87% 30.42 in 6.2 mi SW 8.1 mph - N/A   Overcast
5:55 PM 48.2 °F - 44.6 °F 87% 30.42 in 6.2 mi SW 9.2 mph - N/A   Mostly Cloudy
6:25 PM 48.2 °F - 44.6 °F 87% 30.42 in 6.2 mi WSW 8.1 mph - N/A   Mostly Cloudy
6:55 PM 46.4 °F 42.9 °F 44.6 °F 93% 30.42 in 5.0 mi SW 6.9 mph - N/A   Overcast
7:25 PM 44.6 °F 40.2 °F 42.8 °F 93% 30.45 in 6.2 mi SW 8.1 mph - N/A   Mostly Cloudy
7:43 PM 42.8 °F 38.6 °F 41.0 °F 93% 30.45 in 5.6 mi SW 6.9 mph - N/A   Partly Cloudy
7:55 PM 41.0 °F 35.8 °F 41.0 °F 100% 30.45 in 5.6 mi SW 8.1 mph - N/A   Mist
8:10 PM 41.0 °F 36.4 °F 39.2 °F 93% 30.45 in 4.3 mi SW 6.9 mph - N/A   Mist
8:25 PM 41.0 °F 37.1 °F 41.0 °F 100% 30.45 in 4.3 mi SW 5.8 mph - N/A   Scattered Clouds
8:29 PM 41.0 °F 37.1 °F 41.0 °F 100% 30.45 in 4.3 mi SW 5.8 mph - N/A   Mostly Cloudy
8:46 PM 41.0 °F 35.8 °F 39.2 °F 93% 30.45 in 4.3 mi SW 8.1 mph - N/A   Partly Cloudy
8:48 PM 41.0 °F 35.8 °F 39.2 °F 93% 30.45 in 4.3 mi SW 8.1 mph - N/A   Scattered Clouds
8:55 PM 41.0 °F 35.2 °F 39.2 °F 93% 30.45 in 3.7 mi SW 9.2 mph - N/A   Partly Cloudy
8:58 PM 41.0 °F 35.2 °F 41.0 °F 100% 30.45 in 4.3 mi SW 9.2 mph - N/A   Scattered Clouds
9:05 PM 42.8 °F 37.5 °F 41.0 °F 93% 30.45 in 4.3 mi SW 9.2 mph - N/A   Scattered Clouds
9:09 PM 42.8 °F 37.5 °F 41.0 °F 93% 30.45 in 4.3 mi SW 9.2 mph - N/A   Mostly Cloudy
9:25 PM 42.8 °F 38.0 °F 41.0 °F 93% 30.48 in 4.3 mi SW 8.1 mph - N/A   Mostly Cloudy
9:37 PM 41.0 °F 35.8 °F 39.2 °F 93% 30.48 in 4.3 mi SW 8.1 mph - N/A   Scattered Clouds
9:43 PM 41.0 °F 35.8 °F 39.2 °F 93% 30.48 in 3.7 mi SW 8.1 mph - N/A   Scattered Clouds
9:55 PM 39.2 °F 34.2 °F 39.2 °F 100% 30.48 in 3.7 mi SW 6.9 mph - N/A   Mostly Cloudy
10:25 PM 42.8 °F 39.3 °F 41.0 °F 93% 30.48 in 4.3 mi SSW 5.8 mph - N/A   Overcast
10:40 PM 42.8 °F 40.1 °F 41.0 °F 93% 30.48 in 3.7 mi SW 4.6 mph - N/A   Overcast
10:55 PM 42.8 °F 40.1 °F 42.8 °F 100% 30.48 in 3.7 mi SSW 4.6 mph - N/A   Overcast
11:25 PM 42.8 °F 39.3 °F 42.8 °F 100% 30.48 in 3.1 mi SW 5.8 mph - N/A   Overcast
11:38 PM 42.8 °F 38.6 °F 42.8 °F 100% 30.48 in 3.7 mi SW 6.9 mph - N/A   Overcast
11:55 PM 44.6 °F 41.4 °F 42.8 °F 93% 30.48 in 5.0 mi SW 5.8 mph - N/A   Overcast